Emporia, VA

1:33 PM EST on December 14, 2019 (GMT -0500)
Emporia-Greensville Regional

Weather History for KEMV - October, 2019

Change the Weather History Date:

Thursday, October 10, 2019

  Actual Average Record
Temperature  
Mean Temperature 62 °F -  
Max Temperature 72 °F 75 °F 88 °F (1990)
Min Temperature 53 °F 47 °F 31 °F (1989)
Degree Days  
Heating Degree Days 2    
Growing Degree Days 12 (Base 50)    
Moisture  
Dew Point 54 °F    
Average Humidity 81    
Maximum Humidity 99    
Minimum Humidity 51    
Precipitation  
Precipitation 0.00 in - - ()
Sea Level Pressure  
Sea Level Pressure 30.20 in    
Wind  
Wind Speed 5 mph (NW)    
Max Wind Speed 10 mph    
Max Gust Speed 17 mph    
Visibility 10 miles    
Events      
Averages and records for this station are not official NWS values.
T = Trace of Precipitation, MM = Missing Value Source: NWS Daily Summary

Daily Weather History Graph

Daily Weather History Graph

Search for Another Location

Airport or City:

Astronomy

Oct. 10, 2019 Rise Set
Actual Time 7:12 AM EDT 6:40 PM EDT
Civil Twilight 6:46 AM EDT 7:06 PM EDT
Nautical Twilight 6:16 AM EDT 7:36 PM EDT
Astronomical Twilight 5:46 AM EDT 8:06 PM EDT
Moon 5:34 PM EDT (10/10) 4:01 AM EDT (10/10)
Length of Visible Light 12h 19m
Length of Day
11h 28m
Waxing Gibbous, 91% of the Moon is Illuminated
Oct 10
Waxing Gibbous
Oct 13
Full
Oct 21
Last Quarter
Oct 27
New
Nov 4
First Quarter

Hourly Weather History & Observations

Time (EDT) Temp. Dew Point Humidity Pressure Visibility Wind Dir Wind Speed Gust Speed Precip Events Conditions
12:15 AM 54.1 °F 53.8 °F 99% 30.23 in 10.0 mi Calm Calm - N/A   Clear
12:35 AM 53.4 °F 53.2 °F 99% 30.22 in 10.0 mi NW 4.6 mph - N/A   Scattered Clouds
1:15 AM 54.0 °F 53.2 °F 97% 30.22 in 10.0 mi NW 4.6 mph - N/A   Scattered Clouds
1:35 AM 54.5 °F 53.6 °F 97% 30.22 in 10.0 mi NW 5.8 mph - N/A   Overcast
1:55 AM 54.5 °F 53.6 °F 97% 30.22 in 10.0 mi NW 5.8 mph - N/A   Overcast
2:15 AM 54.7 °F 53.8 °F 97% 30.22 in - NW 4.6 mph - N/A   Overcast
2:35 AM 55.4 °F 53.8 °F 94% 30.22 in 10.0 mi NW 4.6 mph - N/A   Overcast
2:55 AM 55.4 °F 54.0 °F 95% 30.22 in 10.0 mi NW 4.6 mph - N/A   Overcast
3:15 AM 55.6 °F 54.0 °F 94% 30.21 in 10.0 mi NW 4.6 mph - N/A   Overcast
3:35 AM 55.8 °F 54.0 °F 94% 30.21 in 10.0 mi NW 5.8 mph - N/A   Overcast
3:55 AM 55.9 °F 53.8 °F 92% 30.21 in 10.0 mi NW 5.8 mph - N/A   Overcast
4:15 AM 56.3 °F 53.8 °F 91% 30.21 in 10.0 mi NW 5.8 mph - N/A   Overcast
4:35 AM 56.3 °F 54.0 °F 92% 30.22 in 10.0 mi NW 5.8 mph - N/A   Overcast
4:55 AM 56.5 °F 53.6 °F 90% 30.21 in 10.0 mi NNW 4.6 mph - N/A   Overcast
5:15 AM 56.5 °F 53.6 °F 90% 30.21 in 10.0 mi NNW 6.9 mph - N/A   Overcast
5:35 AM 56.5 °F 53.6 °F 90% 30.21 in 10.0 mi NW 5.8 mph - N/A   Overcast
5:55 AM 56.5 °F 53.8 °F 91% 30.21 in 10.0 mi NW 4.6 mph - N/A   Overcast
6:15 AM 56.3 °F 53.6 °F 91% 30.22 in 10.0 mi NW 5.8 mph - N/A   Overcast
6:35 AM 56.3 °F 53.6 °F 91% 30.22 in 10.0 mi NW 5.8 mph - N/A   Overcast
6:55 AM 56.3 °F 53.6 °F 91% 30.23 in 10.0 mi NW 6.9 mph - N/A   Overcast
7:15 AM 56.3 °F 53.6 °F 91% 30.23 in 10.0 mi NW 5.8 mph - N/A   Overcast
7:35 AM 56.1 °F 53.6 °F 91% 30.23 in 10.0 mi NW 6.9 mph - N/A   Overcast
7:55 AM 56.3 °F 53.6 °F 91% 30.23 in 10.0 mi NW 6.9 mph - N/A   Overcast
8:15 AM 56.3 °F 53.6 °F 91% 30.24 in 10.0 mi NW 4.6 mph - N/A   Overcast
8:35 AM 56.7 °F 53.2 °F 88% 30.24 in 10.0 mi NW 8.1 mph - N/A   Overcast
8:55 AM 57.2 °F 53.1 °F 86% 30.24 in 10.0 mi NW 9.2 mph - N/A   Overcast
9:15 AM 57.2 °F 52.5 °F 84% 30.25 in 10.0 mi North 5.8 mph - N/A   Overcast
9:35 AM 57.2 °F 51.8 °F 82% 30.25 in 10.0 mi North 6.9 mph - N/A   Overcast
9:55 AM 57.6 °F 51.8 °F 81% 30.25 in - NNW 8.1 mph - N/A   Overcast
10:15 AM 58.3 °F 52.0 °F 80% 30.26 in 10.0 mi NNW 8.1 mph - N/A   Overcast
10:35 AM 59.2 °F 52.2 °F 78% 30.25 in 10.0 mi NW 6.9 mph - N/A   Overcast
10:55 AM 59.9 °F 52.5 °F 77% 30.26 in 10.0 mi NW 9.2 mph - N/A   Overcast
11:15 AM 60.8 °F 52.7 °F 75% 30.25 in 10.0 mi NW 8.1 mph - N/A   Overcast
11:35 AM 60.6 °F 52.5 °F 75% 30.25 in 10.0 mi WNW 9.2 mph - N/A   Overcast
11:55 AM 62.4 °F 53.1 °F 71% 30.24 in 10.0 mi NNW 9.2 mph - N/A   Overcast
12:15 PM 63.5 °F 53.1 °F 69% 30.23 in - NNW 6.9 mph - N/A   Scattered Clouds
12:35 PM 64.9 °F 53.4 °F 66% 30.22 in 10.0 mi NW 6.9 mph - N/A   Scattered Clouds
12:55 PM 65.7 °F 53.4 °F 65% 30.21 in 10.0 mi WNW 10.4 mph 16.1 mph N/A   Clear
1:15 PM 67.5 °F 54.1 °F 62% 30.19 in 10.0 mi WNW 5.8 mph - N/A   Scattered Clouds
1:35 PM 68.4 °F 54.1 °F 60% 30.18 in 10.0 mi NW 5.8 mph - N/A   Scattered Clouds
1:55 PM 68.5 °F 54.5 °F 61% 30.17 in 10.0 mi NW 5.8 mph - N/A   Scattered Clouds
2:15 PM 70.3 °F 54.3 °F 57% 30.17 in 10.0 mi NNW 9.2 mph 17.3 mph N/A   Mostly Cloudy
2:35 PM 71.4 °F 54.1 °F 54% 30.16 in 10.0 mi NW 10.4 mph - N/A   Mostly Cloudy
2:55 PM 70.7 °F 54.1 °F 56% 30.17 in - NNW 6.9 mph - N/A   Mostly Cloudy
3:15 PM 71.2 °F 53.4 °F 53% 30.17 in 10.0 mi North 8.1 mph - N/A   Mostly Cloudy
3:35 PM 72.1 °F 54.0 °F 53% 30.16 in - North 10.4 mph 17.3 mph N/A   Mostly Cloudy
3:55 PM 72.7 °F 53.8 °F 51% 30.15 in 10.0 mi North 8.1 mph 16.1 mph N/A   Scattered Clouds
4:55 PM 72.0 °F 53.6 °F 52% 30.14 in 10.0 mi North 9.2 mph - N/A   Scattered Clouds
5:35 PM 71.6 °F 53.6 °F 53% 30.13 in 10.0 mi NNW 8.1 mph - N/A   Clear
5:55 PM 71.1 °F 53.8 °F 54% 30.14 in 10.0 mi NNW 3.5 mph - N/A   Clear
6:15 PM 70.0 °F 54.0 °F 57% 30.14 in - NW 3.5 mph - N/A   Clear
6:35 PM 67.1 °F 54.5 °F 64% 30.15 in 10.0 mi Calm Calm - N/A   Clear
6:55 PM 64.9 °F 54.5 °F 69% 30.15 in 10.0 mi Calm Calm - N/A   Clear
7:15 PM 61.7 °F 54.7 °F 78% 30.15 in 10.0 mi Calm Calm - N/A   Clear
7:35 PM 59.7 °F 54.5 °F 83% 30.15 in 10.0 mi Calm Calm - N/A   Clear
7:55 PM 59.9 °F 55.2 °F 84% 30.15 in 10.0 mi Calm Calm - N/A   Clear
8:15 PM 58.1 °F 54.7 °F 88% 30.15 in 10.0 mi Calm Calm - N/A   Clear
8:35 PM 57.4 °F 54.5 °F 90% 30.15 in 10.0 mi Calm Calm - N/A   Clear
8:55 PM 56.5 °F 53.8 °F 91% 30.15 in 10.0 mi Calm Calm - N/A   Clear
9:15 PM 56.1 °F 54.1 °F 93% 30.15 in 10.0 mi Calm Calm - N/A   Clear
9:35 PM 55.4 °F 53.2 °F 92% 30.15 in 10.0 mi Calm Calm - N/A   Clear
10:15 PM 55.8 °F 53.6 °F 92% 30.15 in 10.0 mi WNW 3.5 mph - N/A   Clear
10:35 PM 55.6 °F 53.6 °F 93% 30.16 in - Calm Calm - N/A   Unknown
10:55 PM 55.0 °F 52.9 °F 92% 30.15 in 10.0 mi WNW 3.5 mph - N/A   Clear
11:15 PM 54.3 °F 52.3 °F 93% 30.16 in 10.0 mi NW 3.5 mph - N/A   Clear
11:35 PM 55.0 °F 52.9 °F 92% 30.16 in 10.0 mi Calm Calm - N/A   Clear
11:55 PM 54.7 °F 52.9 °F 94% 30.16 in 10.0 mi Calm Calm - N/A   Clear